This is the latest recevied weather packets stored in our database for station/object TONGUE. If no packets are shown the sender has not sent any weather packets the latest 10 day(s).
| Time | Temp. | Humidity | Pressure | Rain* | Wind** | Luminosity | Snow |
|---|---|---|---|---|---|---|---|
| 1777491004 | 12.78° C | 72% | 0 hPa | - | - | - | - |
| 1777490403 | 12.78° C | 70% | 0 hPa | - | - | - | - |
| 1777489802 | 12.78° C | 69% | 0 hPa | - | - | - | - |
| 1777489203 | 13.33° C | 67% | 0 hPa | - | - | - | - |
| 1777488603 | 14.44° C | 66% | 0 hPa | - | - | - | - |
| 1777488003 | 13.33° C | 64% | 0 hPa | - | - | - | - |
| 1777487404 | 13.33° C | 64% | 0 hPa | - | - | - | - |
| 1777486803 | 13.33° C | 65% | 0 hPa | - | - | - | - |
| 1777486203 | 12.78° C | 66% | 0 hPa | - | - | - | - |
| 1777485603 | 12.78° C | 66% | 0 hPa | - | - | - | - |
| 1777485003 | 11.67° C | 66% | 0 hPa | - | - | - | - |
| 1777484403 | 11.67° C | 65% | 0 hPa | - | - | - | - |
| 1777483803 | 11.11° C | 70% | 0 hPa | - | - | - | - |
| 1777483203 | 11.11° C | 74% | 0 hPa | - | - | - | - |
| 1777482603 | 11.11° C | 76% | 0 hPa | - | - | - | - |
| 1777482003 | 10.56° C | 78% | 0 hPa | - | - | - | - |
| 1777481403 | 10.56° C | 78% | 0 hPa | - | - | - | - |
| 1777480803 | 10.56° C | 80% | 0 hPa | - | - | - | - |
| 1777480203 | 10° C | 84% | 0 hPa | - | - | - | - |
| 1777479603 | 8.89° C | 87% | 0 hPa | - | - | - | - |
| 1777479002 | 10° C | 91% | 0 hPa | - | - | - | - |
| 1777478404 | 9.44° C | 92% | 0 hPa | - | - | - | - |
| 1777477803 | 9.44° C | 94% | 0 hPa | - | - | - | - |
| 1777477203 | 8.89° C | 94% | 0 hPa | - | - | - | - |
| 1777476603 | 8.89° C | 98% | 0 hPa | - | - | - | - |
* Rain since midnight (hover to see other rain measurements)
** Current wind speed in m/s (hover to see current wind gust speed)